Вернуться в каталог

FENGYUN 1C DEB

АктивенPO
NORAD 29794·DEBRIS·🇨🇳 China

Запущен May 10, 1999 с Taiyuan Satellite Launch Center

Loading…

Ближайшие Пролёты (ближайшие 24 часа)

TLE

СвежийSource: Space-Track

Эпоха: Sep 14, 2026, 21:05 UTC

1 29794U 99025CL  26257.87877854  .00000555  00000-0  30385-3 0  9999
2 29794  98.2334  37.5300 0154639 327.5047 186.3948 14.09631350  7262

Отслеживайте FENGYUN 1C DEB в реальном времени с AllMySat

Download on the App Store